Location: *
(49.9853°N, 3.5569°E)
Time: 04:37:13
(UTC+00:00)

Cosmos 1140 Rocket - Pass Details

Date: 22 September 2019
Orbit: 745 x 767 km, 74.1° (Epoch: 19 October)

Event Time Altitude Azimuth Distance (km) Brightness Sun altitude
Rises 19:17:04 0° 334° (NNW) 3,223 7.5 -15.4°
Reaches altitude 10° 19:19:28 10° 332° (NNW) 2,290 6.7 -15.8°
Maximum altitude 19:24:36 66° 251° (WSW) 822 3.8 -16.5°
Drops below altitude 10° 19:29:40 10° 170° (S) 2,261 5.6 -17.3°
Enters shadow 19:29:45 10° 170° (S) 2,296 5.7 -17.3°
